Time,TemperatureF,DewpointF,PressureIn,WindDirection,WindDirectionDegrees,WindSpeedMPH,WindSpeedGustMPH,Humidity,HourlyPrecipIn,Conditions,Clouds,dailyrainin,SoftwareType,DateUTC
2014-02-28 00:03:00,53.4,0.0,29.97,NW,315,4.5,8.9,0,0.00,,,0.00,WUHU21623XXSP,2014-02-28 07:03:00,
2014-02-28 00:08:00,53.2,0.0,29.97,NW,315,7.8,8.1,0,0.00,,,0.00,WUHU21623XXSP,2014-02-28 07:08:00,
2014-02-28 00:13:00,53.8,0.0,29.97,NNE,22,6.7,11.0,0,0.00,,,0.00,WUHU21623XXSP,2014-02-28 07:13:00,
2014-02-28 00:18:00,55.0,0.0,29.97,NNW,337,6.5,11.0,0,0.00,,,0.00,WUHU21623XXSP,2014-02-28 07:18:00,
2014-02-28 00:23:00,54.1,0.0,29.97,NW,315,7.2,11.0,0,0.00,,,0.00,WUHU21623XXSP,2014-02-28 07:23:00,
2014-02-28 00:28:00,53.6,0.0,29.97,NW,315,10.1,11.0,0,0.00,,,0.00,WUHU21623XXSP,2014-02-28 07:28:00,
2014-02-28 00:33:00,53.4,0.0,29.97,NW,315,7.2,12.1,0,0.00,,,0.00,WUHU21623XXSP,2014-02-28 07:33:00,
2014-02-28 00:38:00,53.8,0.0,29.97,NNW,337,7.6,12.1,0,0.00,,,0.00,WUHU21623XXSP,2014-02-28 07:38:00,
2014-02-28 00:43:00,54.3,0.0,29.97,North,0,16.8,16.8,0,0.00,,,0.00,WUHU21623XXSP,2014-02-28 07:43:00,
2014-02-28 00:48:00,54.7,0.0,29.97,North,0,6.7,16.8,0,0.00,,,0.00,WUHU21623XXSP,2014-02-28 07:48:00,
2014-02-28 00:53:00,53.8,0.0,29.97,NW,315,6.9,13.4,0,0.00,,,0.00,WUHU21623XXSP,2014-02-28 07:53:00,
2014-02-28 00:58:00,53.2,0.0,29.98,NW,315,4.0,11.2,0,0.00,,,0.00,WUHU21623XXSP,2014-02-28 07:58:00,
2014-02-28 01:03:00,53.2,0.0,29.98,ENE,67,5.6,11.4,0,0.00,,,0.00,WUHU21623XXSP,2014-02-28 08:03:00,
2014-02-28 01:08:00,53.2,0.0,29.98,NE,45,3.6,11.4,0,0.00,,,0.00,WUHU21623XXSP,2014-02-28 08:08:00,
2014-02-28 01:13:00,53.8,0.0,29.98,NE,45,3.1,11.2,0,0.00,,,0.00,WUHU21623XXSP,2014-02-28 08:13:00,
2014-02-28 01:18:00,53.8,0.0,29.97,NE,45,4.3,11.2,0,0.00,,,0.00,WUHU21623XXSP,2014-02-28 08:18:00,
2014-02-28 01:23:00,53.4,0.0,29.97,NE,45,5.4,6.7,0,0.00,,,0.00,WUHU21623XXSP,2014-02-28 08:23:00,
2014-02-28 01:28:00,52.9,0.0,29.97,NE,45,5.4,9.8,0,0.00,,,0.00,WUHU21623XXSP,2014-02-28 08:28:00,
2014-02-28 01:33:00,52.5,0.0,29.98,ENE,67,8.7,11.4,0,0.00,,,0.00,WUHU21623XXSP,2014-02-28 08:33:00,
2014-02-28 01:38:00,52.0,0.0,29.98,ENE,67,6.9,11.4,0,0.00,,,0.00,WUHU21623XXSP,2014-02-28 08:38:00,
2014-02-28 01:43:00,51.3,0.0,29.98,ENE,67,4.9,8.9,0,0.00,,,0.00,WUHU21623XXSP,2014-02-28 08:43:00,
2014-02-28 01:48:00,51.1,0.0,29.98,ENE,67,6.7,7.8,0,0.00,,,0.00,WUHU21623XXSP,2014-02-28 08:48:00,
2014-02-28 01:53:00,51.1,0.0,29.98,ENE,67,3.6,7.2,0,0.00,,,0.00,WUHU21623XXSP,2014-02-28 08:53:00,
2014-02-28 01:59:00,51.1,0.0,29.99,ENE,67,3.4,7.2,0,0.00,,,0.00,WUHU21623XXSP,2014-02-28 08:59:00,
2014-02-28 02:04:00,50.7,0.0,29.99,ENE,67,0.0,6.9,0,0.00,,,0.00,WUHU21623XXSP,2014-02-28 09:04:00,
2014-02-28 02:09:00,50.2,0.0,29.99,ENE,67,3.4,3.4,0,0.00,,,0.00,WUHU21623XXSP,2014-02-28 09:09:00,
2014-02-28 02:14:00,50.0,0.0,29.99,ENE,67,4.9,4.9,0,0.00,,,0.00,WUHU21623XXSP,2014-02-28 09:14:00,
2014-02-28 02:19:00,49.8,0.0,29.99,NE,45,0.9,5.8,0,0.00,,,0.00,WUHU21623XXSP,2014-02-28 09:19:00,
2014-02-28 02:24:00,49.6,0.0,29.99,NE,45,3.6,5.8,0,0.00,,,0.00,WUHU21623XXSP,2014-02-28 09:24:00,
2014-02-28 02:29:00,49.1,0.0,29.99,NE,45,0.0,6.0,0,0.00,,,0.00,WUHU21623XXSP,2014-02-28 09:29:00,
2014-02-28 02:34:00,48.4,0.0,29.99,NE,45,0.0,6.0,0,0.00,,,0.00,WUHU21623XXSP,2014-02-28 09:34:00,
2014-02-28 02:39:00,48.0,0.0,29.99,NE,45,0.0,0.0,0,0.00,,,0.00,WUHU21623XXSP,2014-02-28 09:39:00,
2014-02-28 02:44:00,47.8,0.0,29.99,NE,45,2.9,2.9,0,0.00,,,0.00,WUHU21623XXSP,2014-02-28 09:44:00,
2014-02-28 02:49:00,47.8,0.0,29.99,NE,45,0.0,3.4,0,0.00,,,0.00,WUHU21623XXSP,2014-02-28 09:49:00,
2014-02-28 02:54:00,48.6,0.0,29.99,NE,45,1.8,3.4,0,0.00,,,0.00,WUHU21623XXSP,2014-02-28 09:54:00,
2014-02-28 02:59:00,48.7,0.0,29.99,NE,45,0.0,2.7,0,0.00,,,0.00,WUHU21623XXSP,2014-02-28 09:59:00,
2014-02-28 03:04:00,48.6,0.0,29.99,NE,45,4.3,5.6,0,0.00,,,0.00,WUHU21623XXSP,2014-02-28 10:04:00,
2014-02-28 03:09:00,48.4,0.0,29.99,NE,45,2.7,5.6,0,0.00,,,0.00,WUHU21623XXSP,2014-02-28 10:09:00,
2014-02-28 03:14:00,48.0,0.0,29.99,NE,45,0.0,4.3,0,0.00,,,0.00,WUHU21623XXSP,2014-02-28 10:14:00,
2014-02-28 03:19:00,47.8,0.0,29.99,NE,45,3.6,4.5,0,0.00,,,0.00,WUHU21623XXSP,2014-02-28 10:19:00,
2014-02-28 03:24:00,47.3,0.0,29.98,North,0,6.7,6.9,0,0.00,,,0.00,WUHU21623XXSP,2014-02-28 10:24:00,
2014-02-28 03:29:00,47.5,0.0,29.98,NNW,337,8.7,8.7,0,0.00,,,0.00,WUHU21623XXSP,2014-02-28 10:29:00,
2014-02-28 03:34:00,48.0,0.0,29.98,NNW,337,2.7,11.2,0,0.00,,,0.00,WUHU21623XXSP,2014-02-28 10:34:00,
2014-02-28 03:39:00,47.8,0.0,29.98,SE,135,7.8,11.2,0,0.00,,,0.00,WUHU21623XXSP,2014-02-28 10:39:00,
2014-02-28 03:44:00,48.9,0.0,29.98,SE,135,3.8,9.4,0,0.00,,,0.00,WUHU21623XXSP,2014-02-28 10:44:00,
2014-02-28 03:49:00,48.9,0.0,29.98,SE,135,3.6,7.6,0,0.00,,,0.00,WUHU21623XXSP,2014-02-28 10:49:00,
2014-02-28 03:54:00,48.2,0.0,29.99,SE,135,1.6,7.2,0,0.00,,,0.00,WUHU21623XXSP,2014-02-28 10:54:00,
2014-02-28 03:59:00,48.0,0.0,29.98,SE,135,0.0,5.4,0,0.00,,,0.00,WUHU21623XXSP,2014-02-28 10:59:00,
2014-02-28 04:04:00,48.6,0.0,29.98,SE,135,0.0,4.7,0,0.00,,,0.00,WUHU21623XXSP,2014-02-28 11:04:00,
2014-02-28 04:09:00,47.8,0.0,29.98,SSE,157,2.7,4.7,0,0.00,,,0.00,WUHU21623XXSP,2014-02-28 11:09:00,
2014-02-28 04:14:00,46.2,0.0,29.98,SSE,157,2.5,2.9,0,0.00,,,0.00,WUHU21623XXSP,2014-02-28 11:14:00,
2014-02-28 04:19:00,45.7,0.0,29.98,SSE,157,5.4,5.8,0,0.00,,,0.00,WUHU21623XXSP,2014-02-28 11:19:00,
2014-02-28 04:24:00,45.1,0.0,29.98,SSE,157,0.0,6.9,0,0.00,,,0.00,WUHU21623XXSP,2014-02-28 11:24:00,
2014-02-28 04:30:00,44.8,0.0,29.98,SSE,157,0.0,6.9,0,0.00,,,0.00,WUHU21623XXSP,2014-02-28 11:30:00,
2014-02-28 04:35:00,46.4,0.0,29.98,SSE,157,0.0,4.0,0,0.00,,,0.00,WUHU21623XXSP,2014-02-28 11:35:00,
2014-02-28 04:40:00,46.2,0.0,29.98,SSE,157,0.0,4.0,0,0.00,,,0.00,WUHU21623XXSP,2014-02-28 11:40:00,
2014-02-28 04:45:00,45.7,0.0,29.97,SSE,157,0.0,2.9,0,0.00,,,0.00,WUHU21623XXSP,2014-02-28 11:45:00,
2014-02-28 04:50:00,45.5,0.0,29.98,SSE,157,0.0,0.0,0,0.00,,,0.00,WUHU21623XXSP,2014-02-28 11:50:00,
2014-02-28 04:55:00,44.4,0.0,29.98,South,180,4.5,4.5,0,0.00,,,0.00,WUHU21623XXSP,2014-02-28 11:55:00,
2014-02-28 05:00:00,43.9,0.0,29.98,SW,225,6.7,8.7,0,0.00,,,0.00,WUHU21623XXSP,2014-02-28 12:00:00,
2014-02-28 05:05:00,43.3,0.0,29.99,SW,225,7.6,8.7,0,0.00,,,0.00,WUHU21623XXSP,2014-02-28 12:05:00,
2014-02-28 05:10:00,43.3,0.0,29.99,SW,225,6.5,9.4,0,0.00,,,0.00,WUHU21623XXSP,2014-02-28 12:10:00,
2014-02-28 05:15:00,43.3,0.0,29.99,SW,225,5.6,9.4,0,0.00,,,0.00,WUHU21623XXSP,2014-02-28 12:15:00,
2014-02-28 05:20:00,43.7,0.0,30.00,SW,225,7.8,8.9,0,0.00,,,0.00,WUHU21623XXSP,2014-02-28 12:20:00,
2014-02-28 05:25:00,44.8,0.0,30.00,SW,225,4.5,8.9,0,0.00,,,0.00,WUHU21623XXSP,2014-02-28 12:25:00,
2014-02-28 05:30:00,44.8,0.0,30.00,SW,225,4.9,8.7,0,0.00,,,0.00,WUHU21623XXSP,2014-02-28 12:30:00,
2014-02-28 05:35:00,45.5,0.0,30.00,SW,225,0.0,6.7,0,0.00,,,0.00,WUHU21623XXSP,2014-02-28 12:35:00,
2014-02-28 05:40:00,44.4,0.0,30.00,SW,225,2.9,6.7,0,0.00,,,0.00,WUHU21623XXSP,2014-02-28 12:40:00,
2014-02-28 05:45:00,44.2,0.0,30.00,SW,225,0.0,5.1,0,0.00,,,0.00,WUHU21623XXSP,2014-02-28 12:45:00,
2014-02-28 05:50:00,43.7,0.0,30.00,SW,225,0.0,4.0,0,0.00,,,0.00,WUHU21623XXSP,2014-02-28 12:50:00,
2014-02-28 05:55:00,42.8,0.0,30.01,SW,225,3.1,4.0,0,0.00,,,0.00,WUHU21623XXSP,2014-02-28 12:55:00,
2014-02-28 06:00:00,42.1,0.0,30.00,SW,225,0.0,4.0,0,0.00,,,0.00,WUHU21623XXSP,2014-02-28 13:00:00,
2014-02-28 06:05:00,41.5,0.0,30.01,SW,225,2.9,3.8,0,0.00,,,0.00,WUHU21623XXSP,2014-02-28 13:05:00,
2014-02-28 06:10:00,41.5,0.0,30.01,SW,225,0.2,3.8,0,0.00,,,0.00,WUHU21623XXSP,2014-02-28 13:10:00,
2014-02-28 06:15:00,41.5,0.0,30.00,SW,225,0.0,3.1,0,0.00,,,0.00,WUHU21623XXSP,2014-02-28 13:15:00,
2014-02-28 06:20:00,41.7,0.0,30.00,SW,225,2.9,2.9,0,0.00,,,0.00,WUHU21623XXSP,2014-02-28 13:20:00,
2014-02-28 06:25:00,42.1,0.0,30.01,SW,225,0.0,2.9,0,0.00,,,0.00,WUHU21623XXSP,2014-02-28 13:25:00,
2014-02-28 06:30:00,41.5,0.0,30.01,SW,225,0.0,2.5,0,0.00,,,0.00,WUHU21623XXSP,2014-02-28 13:30:00,
2014-02-28 06:35:00,41.4,0.0,30.01,SW,225,0.0,0.0,0,0.00,,,0.00,WUHU21623XXSP,2014-02-28 13:35:00,
2014-02-28 06:40:00,41.4,0.0,30.01,SW,225,0.0,0.0,0,0.00,,,0.00,WUHU21623XXSP,2014-02-28 13:40:00,
2014-02-28 06:45:00,41.2,0.0,30.01,SW,225,0.0,0.0,0,0.00,,,0.00,WUHU21623XXSP,2014-02-28 13:45:00,
2014-02-28 06:50:00,41.5,0.0,30.01,SW,225,0.0,0.0,0,0.00,,,0.00,WUHU21623XXSP,2014-02-28 13:50:00,
2014-02-28 06:55:00,42.1,0.0,30.02,SW,225,0.0,0.0,0,0.00,,,0.00,WUHU21623XXSP,2014-02-28 13:55:00,
2014-02-28 07:00:00,42.6,0.0,30.02,SW,225,0.0,0.0,0,0.00,,,0.00,WUHU21623XXSP,2014-02-28 14:00:00,
2014-02-28 07:05:00,41.5,0.0,30.03,SW,225,0.0,2.7,0,0.00,,,0.00,WUHU21623XXSP,2014-02-28 14:05:00,
2014-02-28 07:10:00,41.5,0.0,30.03,SW,225,1.8,3.4,0,0.00,,,0.00,WUHU21623XXSP,2014-02-28 14:10:00,
2014-02-28 07:15:00,41.0,0.0,30.03,SW,225,5.6,5.6,0,0.00,,,0.00,WUHU21623XXSP,2014-02-28 14:15:00,
2014-02-28 07:20:00,42.4,0.0,30.03,SW,225,5.4,6.0,0,0.00,,,0.00,WUHU21623XXSP,2014-02-28 14:20:00,
2014-02-28 07:25:00,43.2,0.0,30.03,SW,225,3.4,6.0,0,0.00,,,0.00,WUHU21623XXSP,2014-02-28 14:25:00,
2014-02-28 07:30:00,43.9,0.0,30.03,SW,225,2.5,5.1,0,0.00,,,0.00,WUHU21623XXSP,2014-02-28 14:30:00,
2014-02-28 07:35:00,44.4,0.0,30.03,East,90,7.2,7.2,0,0.00,,,0.00,WUHU21623XXSP,2014-02-28 14:35:00,
2014-02-28 07:40:00,43.9,0.0,30.03,East,90,3.4,8.9,0,0.00,,,0.00,WUHU21623XXSP,2014-02-28 14:40:00,
2014-02-28 07:45:00,43.3,0.0,30.03,ESE,112,5.1,8.9,0,0.00,,,0.00,WUHU21623XXSP,2014-02-28 14:45:00,
2014-02-28 07:50:00,44.6,0.0,30.03,ESE,112,1.6,6.5,0,0.00,,,0.00,WUHU21623XXSP,2014-02-28 14:50:00,
2014-02-28 07:55:00,46.2,0.0,30.03,ESE,112,1.8,6.0,0,0.00,,,0.00,WUHU21623XXSP,2014-02-28 14:55:00,
2014-02-28 08:00:00,47.1,0.0,30.04,ESE,112,5.8,5.8,0,0.00,,,0.00,WUHU21623XXSP,2014-02-28 15:00:00,
2014-02-28 08:05:00,47.8,0.0,30.03,ESE,112,4.0,5.8,0,0.00,,,0.00,WUHU21623XXSP,2014-02-28 15:05:00,
2014-02-28 08:10:00,48.7,0.0,30.04,ESE,112,4.9,5.8,0,0.00,,,0.00,WUHU21623XXSP,2014-02-28 15:10:00,
2014-02-28 08:15:00,49.5,0.0,30.04,ESE,112,2.2,6.0,0,0.00,,,0.00,WUHU21623XXSP,2014-02-28 15:15:00,
2014-02-28 08:20:00,50.9,0.0,30.04,SE,135,6.5,6.7,0,0.00,,,0.00,WUHU21623XXSP,2014-02-28 15:20:00,
2014-02-28 08:25:00,51.4,0.0,30.04,SE,135,2.0,7.2,0,0.00,,,0.00,WUHU21623XXSP,2014-02-28 15:25:00,
2014-02-28 08:30:00,52.7,0.0,30.04,SE,135,4.0,7.2,0,0.00,,,0.00,WUHU21623XXSP,2014-02-28 15:30:00,
2014-02-28 08:35:00,53.6,0.0,30.04,SE,135,7.4,7.4,0,0.00,,,0.00,WUHU21623XXSP,2014-02-28 15:35:00,
2014-02-28 08:41:00,53.2,0.0,30.04,SE,135,7.4,9.2,0,0.00,,,0.00,WUHU21623XXSP,2014-02-28 15:41:00,
2014-02-28 08:46:00,53.8,0.0,30.04,SE,135,4.9,9.2,0,0.00,,,0.00,WUHU21623XXSP,2014-02-28 15:46:00,
2014-02-28 08:51:00,54.7,0.0,30.04,SE,135,5.6,7.4,0,0.00,,,0.00,WUHU21623XXSP,2014-02-28 15:51:00,
2014-02-28 08:56:00,55.8,0.0,30.04,SE,135,4.7,7.2,0,0.00,,,0.00,WUHU21623XXSP,2014-02-28 15:56:00,
2014-02-28 09:01:00,57.0,0.0,30.04,SE,135,0.0,7.2,0,0.00,,,0.00,WUHU21623XXSP,2014-02-28 16:01:00,
2014-02-28 09:06:00,57.9,0.0,30.04,SE,135,5.4,5.8,0,0.00,,,0.00,WUHU21623XXSP,2014-02-28 16:06:00,
2014-02-28 09:11:00,58.8,0.0,30.04,SE,135,4.0,5.4,0,0.00,,,0.00,WUHU21623XXSP,2014-02-28 16:11:00,
2014-02-28 09:16:00,59.5,0.0,30.04,SE,135,1.6,6.5,0,0.00,,,0.00,WUHU21623XXSP,2014-02-28 16:16:00,
2014-02-28 09:21:00,60.4,0.0,30.04,SE,135,0.0,6.5,0,0.00,,,0.00,WUHU21623XXSP,2014-02-28 16:21:00,
2014-02-28 09:26:00,60.6,0.0,30.04,SE,135,0.0,5.4,0,0.00,,,0.00,WUHU21623XXSP,2014-02-28 16:26:00,
2014-02-28 09:31:00,61.7,0.0,30.03,SE,135,2.9,5.6,0,0.00,,,0.00,WUHU21623XXSP,2014-02-28 16:31:00,
2014-02-28 09:36:00,61.9,0.0,30.03,SE,135,1.6,5.6,0,0.00,,,0.00,WUHU21623XXSP,2014-02-28 16:36:00,
2014-02-28 09:41:00,62.2,0.0,30.03,SE,135,3.1,5.6,0,0.00,,,0.00,WUHU21623XXSP,2014-02-28 16:41:00,
2014-02-28 09:46:00,63.3,0.0,30.03,SE,135,3.4,6.0,0,0.00,,,0.00,WUHU21623XXSP,2014-02-28 16:46:00,
2014-02-28 09:51:00,63.7,0.0,30.03,SE,135,4.5,8.1,0,0.00,,,0.00,WUHU21623XXSP,2014-02-28 16:51:00,
2014-02-28 09:56:00,64.2,0.0,30.03,SE,135,3.4,8.1,0,0.00,,,0.00,WUHU21623XXSP,2014-02-28 16:56:00,
2014-02-28 10:01:00,64.2,0.0,30.03,SE,135,3.1,7.6,0,0.00,,,0.00,WUHU21623XXSP,2014-02-28 17:01:00,
2014-02-28 10:06:00,64.9,0.0,30.03,SE,135,7.4,11.0,0,0.00,,,0.00,WUHU21623XXSP,2014-02-28 17:06:00,
2014-02-28 10:11:00,65.7,0.0,30.03,SE,135,4.9,11.0,0,0.00,,,0.00,WUHU21623XXSP,2014-02-28 17:11:00,
2014-02-28 10:16:00,65.7,0.0,30.02,SE,135,2.9,8.3,0,0.00,,,0.00,WUHU21623XXSP,2014-02-28 17:16:00,
2014-02-28 10:21:00,66.0,0.0,30.02,SE,135,2.9,7.2,0,0.00,,,0.00,WUHU21623XXSP,2014-02-28 17:21:00,
2014-02-28 10:26:00,66.6,0.0,30.02,South,180,6.3,7.2,0,0.00,,,0.00,WUHU21623XXSP,2014-02-28 17:26:00,
2014-02-28 10:31:00,67.3,0.0,30.01,SSE,157,2.9,8.1,0,0.00,,,0.00,WUHU21623XXSP,2014-02-28 17:31:00,
2014-02-28 10:36:00,67.3,0.0,30.01,SSE,157,0.0,9.8,0,0.00,,,0.00,WUHU21623XXSP,2014-02-28 17:36:00,
2014-02-28 10:41:00,68.0,0.0,30.01,South,180,14.8,14.8,0,0.00,,,0.00,WUHU21623XXSP,2014-02-28 17:41:00,
2014-02-28 10:46:00,67.8,0.0,30.01,South,180,4.9,14.8,0,0.00,,,0.00,WUHU21623XXSP,2014-02-28 17:46:00,
2014-02-28 10:51:00,69.1,0.0,30.01,South,180,6.7,12.5,0,0.00,,,0.00,WUHU21623XXSP,2014-02-28 17:51:00,
2014-02-28 10:56:00,69.4,0.0,30.01,SSE,157,7.2,15.4,0,0.00,,,0.00,WUHU21623XXSP,2014-02-28 17:56:00,
2014-02-28 11:01:00,69.6,0.0,30.01,SSE,157,8.3,15.4,0,0.00,,,0.00,WUHU21623XXSP,2014-02-28 18:01:00,
2014-02-28 11:06:00,69.6,0.0,30.00,SW,225,16.3,16.3,0,0.00,,,0.00,WUHU21623XXSP,2014-02-28 18:06:00,
2014-02-28 11:11:00,69.8,0.0,30.01,South,180,11.4,17.9,0,0.00,,,0.00,WUHU21623XXSP,2014-02-28 18:11:00,
2014-02-28 11:16:00,70.5,0.0,30.01,South,180,15.4,19.9,0,0.00,,,0.00,WUHU21623XXSP,2014-02-28 18:16:00,
2014-02-28 11:21:00,70.3,0.0,30.01,WSW,247,11.0,19.9,0,0.00,,,0.00,WUHU21623XXSP,2014-02-28 18:21:00,
2014-02-28 11:26:00,70.9,0.0,30.01,South,180,17.0,22.8,0,0.00,,,0.00,WUHU21623XXSP,2014-02-28 18:26:00,
2014-02-28 11:31:00,70.9,0.0,30.01,SSE,157,6.3,22.8,0,0.00,,,0.00,WUHU21623XXSP,2014-02-28 18:31:00,
2014-02-28 11:36:00,71.4,0.0,30.01,South,180,17.0,19.9,0,0.00,,,0.00,WUHU21623XXSP,2014-02-28 18:36:00,
2014-02-28 11:41:00,71.2,0.0,30.00,SE,135,7.2,18.8,0,0.00,,,0.00,WUHU21623XXSP,2014-02-28 18:41:00,
2014-02-28 11:46:00,72.7,0.0,30.00,SSE,157,9.6,18.6,0,0.00,,,0.00,WUHU21623XXSP,2014-02-28 18:46:00,
2014-02-28 11:51:00,72.7,0.0,30.00,SSE,157,8.5,10.3,0,0.00,,,0.00,WUHU21623XXSP,2014-02-28 18:51:00,
2014-02-28 11:56:00,73.0,0.0,30.00,SE,135,0.0,14.1,0,0.00,,,0.00,WUHU21623XXSP,2014-02-28 18:56:00,
2014-02-28 12:01:00,76.3,0.0,30.00,SE,135,0.0,14.1,0,0.00,,,0.00,WUHU21623XXSP,2014-02-28 19:01:00,
2014-02-28 12:07:00,78.1,0.0,29.99,ENE,67,4.5,9.6,0,0.00,,,0.00,WUHU21623XXSP,2014-02-28 19:07:00,
2014-02-28 12:12:00,79.5,0.0,29.98,ENE,67,3.4,11.0,0,0.00,,,0.00,WUHU21623XXSP,2014-02-28 19:12:00,
2014-02-28 12:17:00,81.7,0.0,29.98,NNE,22,10.1,11.9,0,0.00,,,0.00,WUHU21623XXSP,2014-02-28 19:17:00,
2014-02-28 12:22:00,82.8,0.0,29.98,NNW,337,10.3,16.1,0,0.00,,,0.00,WUHU21623XXSP,2014-02-28 19:22:00,
2014-02-28 12:27:00,82.6,0.0,29.97,NNE,22,12.1,21.3,0,0.00,,,0.00,WUHU21623XXSP,2014-02-28 19:27:00,
2014-02-28 12:32:00,79.9,0.0,29.96,ENE,67,12.8,21.3,0,0.00,,,0.00,WUHU21623XXSP,2014-02-28 19:32:00,
2014-02-28 12:37:00,76.5,0.0,29.96,SE,135,4.7,18.1,0,0.00,,,0.00,WUHU21623XXSP,2014-02-28 19:37:00,
2014-02-28 12:42:00,75.6,0.0,29.97,SE,135,0.0,18.1,0,0.00,,,0.00,WUHU21623XXSP,2014-02-28 19:42:00,
2014-02-28 12:47:00,79.3,0.0,29.96,NE,45,2.5,9.8,0,0.00,,,0.00,WUHU21623XXSP,2014-02-28 19:47:00,
2014-02-28 12:52:00,82.2,0.0,29.96,NNE,22,6.3,10.5,0,0.00,,,0.00,WUHU21623XXSP,2014-02-28 19:52:00,
2014-02-28 12:57:00,84.0,0.0,29.96,North,0,13.4,23.5,0,0.00,,,0.00,WUHU21623XXSP,2014-02-28 19:57:00,
2014-02-28 13:02:00,84.4,0.0,29.96,North,0,6.9,23.5,0,0.00,,,0.00,WUHU21623XXSP,2014-02-28 20:02:00,
2014-02-28 13:07:00,85.3,0.0,29.96,NNE,22,4.0,16.8,0,0.00,,,0.00,WUHU21623XXSP,2014-02-28 20:07:00,
2014-02-28 13:12:00,85.1,0.0,29.95,North,0,11.2,12.5,0,0.00,,,0.00,WUHU21623XXSP,2014-02-28 20:12:00,
2014-02-28 13:17:00,85.1,0.0,29.95,NE,45,5.8,17.4,0,0.00,,,0.00,WUHU21623XXSP,2014-02-28 20:17:00,
2014-02-28 13:22:00,85.1,0.0,29.95,NW,315,13.0,22.1,0,0.00,,,0.00,WUHU21623XXSP,2014-02-28 20:22:00,
2014-02-28 13:27:00,84.2,0.0,29.95,NW,315,17.7,27.5,0,0.00,,,0.00,WUHU21623XXSP,2014-02-28 20:27:00,
2014-02-28 13:32:00,82.9,0.0,29.94,NW,315,27.7,27.7,0,0.00,,,0.00,WUHU21623XXSP,2014-02-28 20:32:00,
2014-02-28 13:37:00,81.7,0.0,29.93,WNW,292,18.6,27.7,0,0.00,,,0.00,WUHU21623XXSP,2014-02-28 20:37:00,
2014-02-28 13:42:00,81.5,0.0,29.94,WNW,292,26.8,28.6,0,0.00,,,0.00,WUHU21623XXSP,2014-02-28 20:42:00,
2014-02-28 13:47:00,81.3,0.0,29.94,WNW,292,18.1,28.9,0,0.00,,,0.00,WUHU21623XXSP,2014-02-28 20:47:00,
2014-02-28 13:52:00,80.8,0.0,29.93,West,270,5.8,28.9,0,0.00,,,0.00,WUHU21623XXSP,2014-02-28 20:52:00,
2014-02-28 13:57:00,81.0,0.0,29.94,WNW,292,16.6,23.3,0,0.00,,,0.00,WUHU21623XXSP,2014-02-28 20:57:00,
2014-02-28 14:02:00,82.2,0.0,29.93,WNW,292,11.6,21.9,0,0.00,,,0.00,WUHU21623XXSP,2014-02-28 21:02:00,
2014-02-28 14:07:00,78.6,0.0,29.94,West,270,8.1,18.6,0,0.00,,,0.00,WUHU21623XXSP,2014-02-28 21:07:00,
2014-02-28 14:12:00,77.4,0.0,29.94,WNW,292,0.0,14.5,0,0.00,,,0.00,WUHU21623XXSP,2014-02-28 21:12:00,
2014-02-28 14:17:00,80.2,0.0,29.93,NNE,22,6.3,12.1,0,0.00,,,0.00,WUHU21623XXSP,2014-02-28 21:17:00,
2014-02-28 14:22:00,83.5,0.0,29.93,NNE,22,6.5,9.2,0,0.00,,,0.00,WUHU21623XXSP,2014-02-28 21:22:00,
2014-02-28 14:27:00,84.4,0.0,29.93,North,0,4.5,13.2,0,0.00,,,0.00,WUHU21623XXSP,2014-02-28 21:27:00,
2014-02-28 14:32:00,84.6,0.0,29.92,NNW,337,16.8,21.7,0,0.00,,,0.00,WUHU21623XXSP,2014-02-28 21:32:00,
2014-02-28 14:37:00,84.0,0.0,29.92,NW,315,12.1,22.1,0,0.00,,,0.00,WUHU21623XXSP,2014-02-28 21:37:00,
2014-02-28 14:42:00,85.8,0.0,29.92,North,0,8.9,22.1,0,0.00,,,0.00,WUHU21623XXSP,2014-02-28 21:42:00,
2014-02-28 14:47:00,81.1,0.0,29.92,SSW,202,15.7,15.7,0,0.00,,,0.00,WUHU21623XXSP,2014-02-28 21:47:00,
2014-02-28 14:52:00,78.6,0.0,29.92,SSE,157,6.5,20.6,0,0.00,,,0.00,WUHU21623XXSP,2014-02-28 21:52:00,
2014-02-28 14:57:00,79.2,0.0,29.92,SSE,157,4.3,20.6,0,0.00,,,0.00,WUHU21623XXSP,2014-02-28 21:57:00,
2014-02-28 15:02:00,81.1,0.0,29.91,ESE,112,5.8,11.2,0,0.00,,,0.00,WUHU21623XXSP,2014-02-28 22:02:00,
2014-02-28 15:07:00,80.4,0.0,29.91,SW,225,6.7,11.2,0,0.00,,,0.00,WUHU21623XXSP,2014-02-28 22:07:00,
2014-02-28 15:12:00,80.8,0.0,29.91,WSW,247,1.1,10.3,0,0.00,,,0.00,WUHU21623XXSP,2014-02-28 22:12:00,
2014-02-28 15:17:00,81.3,0.0,29.91,SW,225,6.9,11.9,0,0.00,,,0.00,WUHU21623XXSP,2014-02-28 22:17:00,
2014-02-28 15:22:00,81.5,0.0,29.91,West,270,10.1,21.9,0,0.00,,,0.00,WUHU21623XXSP,2014-02-28 22:22:00,
2014-02-28 15:27:00,80.8,0.0,29.91,West,270,23.5,23.7,0,0.00,,,0.00,WUHU21623XXSP,2014-02-28 22:27:00,
2014-02-28 15:32:00,81.9,0.0,29.91,WNW,292,13.6,23.7,0,0.00,,,0.00,WUHU21623XXSP,2014-02-28 22:32:00,
2014-02-28 15:37:00,82.2,0.0,29.91,WNW,292,6.9,32.0,0,0.00,,,0.00,WUHU21623XXSP,2014-02-28 22:37:00,
2014-02-28 15:42:00,82.6,0.0,29.91,NW,315,12.1,32.0,0,0.00,,,0.00,WUHU21623XXSP,2014-02-28 22:42:00,
2014-02-28 15:47:00,82.9,0.0,29.91,West,270,18.1,30.4,0,0.00,,,0.00,WUHU21623XXSP,2014-02-28 22:47:00,
2014-02-28 15:52:00,80.4,0.0,29.91,West,270,17.4,20.8,0,0.00,,,0.00,WUHU21623XXSP,2014-02-28 22:52:00,
2014-02-28 15:57:00,81.3,0.0,29.91,WNW,292,12.1,28.0,0,0.00,,,0.00,WUHU21623XXSP,2014-02-28 22:57:00,
2014-02-28 16:02:00,80.4,0.0,29.91,WSW,247,17.9,28.0,0,0.00,,,0.00,WUHU21623XXSP,2014-02-28 23:02:00,
2014-02-28 16:07:00,79.9,0.0,29.91,NW,315,16.3,26.8,0,0.00,,,0.00,WUHU21623XXSP,2014-02-28 23:07:00,
2014-02-28 16:12:00,81.0,0.0,29.91,WNW,292,24.4,26.8,0,0.00,,,0.00,WUHU21623XXSP,2014-02-28 23:12:00,
2014-02-28 16:18:00,79.9,0.0,29.91,WNW,292,14.1,26.8,0,0.00,,,0.00,WUHU21623XXSP,2014-02-28 23:18:00,
2014-02-28 16:23:00,80.1,0.0,29.91,West,270,20.8,26.8,0,0.00,,,0.00,WUHU21623XXSP,2014-02-28 23:23:00,
2014-02-28 16:28:00,79.3,0.0,29.91,WNW,292,15.2,26.2,0,0.00,,,0.00,WUHU21623XXSP,2014-02-28 23:28:00,
2014-02-28 16:33:00,81.3,0.0,29.92,WNW,292,11.4,25.9,0,0.00,,,0.00,WUHU21623XXSP,2014-02-28 23:33:00,
2014-02-28 16:34:00,81.5,0.0,29.91,West,270,10.3,17.9,0,0.00,,,0.00,WUHU21623XXSP,2014-02-28 23:34:00,
2014-02-28 16:39:00,80.2,0.0,29.91,West,270,8.5,18.8,0,0.00,,,0.00,WUHU21623XXSP,2014-02-28 23:39:00,
2014-02-28 16:44:00,80.4,0.0,29.90,WSW,247,16.8,24.2,0,0.00,,,0.00,WUHU21623XXSP,2014-02-28 23:44:00,
2014-02-28 16:49:00,78.6,0.0,29.90,SW,225,12.1,24.2,0,0.00,,,0.00,WUHU21623XXSP,2014-02-28 23:49:00,
2014-02-28 16:54:00,77.4,0.0,29.90,SW,225,22.4,27.1,0,0.00,,,0.00,WUHU21623XXSP,2014-02-28 23:54:00,
2014-02-28 16:59:00,76.8,0.0,29.91,WSW,247,19.7,29.8,0,0.00,,,0.00,WUHU21623XXSP,2014-02-28 23:59:00,
2014-02-28 17:04:00,75.9,0.0,29.91,WSW,247,16.1,29.8,0,0.00,,,0.00,WUHU21623XXSP,2014-03-01 00:04:00,
2014-02-28 17:09:00,76.5,0.0,29.91,West,270,11.4,25.7,0,0.00,,,0.00,WUHU21623XXSP,2014-03-01 00:09:00,
2014-02-28 17:14:00,77.2,0.0,29.91,West,270,4.9,22.1,0,0.00,,,0.00,WUHU21623XXSP,2014-03-01 00:14:00,
2014-02-28 17:19:00,76.8,0.0,29.91,West,270,22.4,24.2,0,0.00,,,0.00,WUHU21623XXSP,2014-03-01 00:19:00,
2014-02-28 17:24:00,75.7,0.0,29.91,West,270,6.5,24.2,0,0.00,,,0.00,WUHU21623XXSP,2014-03-01 00:24:00,
2014-02-28 17:29:00,75.2,0.0,29.91,West,270,8.1,22.1,0,0.00,,,0.00,WUHU21623XXSP,2014-03-01 00:29:00,
2014-02-28 17:34:00,74.8,0.0,29.91,West,270,9.8,19.0,0,0.00,,,0.00,WUHU21623XXSP,2014-03-01 00:34:00,
2014-02-28 17:39:00,73.8,0.0,29.91,WNW,292,9.6,20.1,0,0.00,,,0.00,WUHU21623XXSP,2014-03-01 00:39:00,
2014-02-28 17:44:00,72.7,0.0,29.91,West,270,10.7,21.5,0,0.00,,,0.00,WUHU21623XXSP,2014-03-01 00:44:00,
2014-02-28 17:49:00,72.3,0.0,29.92,WSW,247,9.2,21.5,0,0.00,,,0.00,WUHU21623XXSP,2014-03-01 00:49:00,
2014-02-28 17:54:00,71.8,0.0,29.91,West,270,8.9,20.6,0,0.00,,,0.00,WUHU21623XXSP,2014-03-01 00:54:00,
2014-02-28 17:59:00,71.4,0.0,29.92,West,270,17.4,17.4,0,0.00,,,0.00,WUHU21623XXSP,2014-03-01 00:59:00,
2014-02-28 18:05:00,71.2,0.0,29.92,West,270,8.5,17.4,0,0.00,,,0.00,WUHU21623XXSP,2014-03-01 01:05:00,
2014-02-28 18:10:00,70.9,0.0,29.92,West,270,7.6,17.0,0,0.00,,,0.00,WUHU21623XXSP,2014-03-01 01:10:00,
2014-02-28 18:15:00,70.3,0.0,29.92,WSW,247,6.3,12.1,0,0.00,,,0.00,WUHU21623XXSP,2014-03-01 01:15:00,
2014-02-28 18:20:00,69.6,0.0,29.92,West,270,7.2,10.5,0,0.00,,,0.00,WUHU21623XXSP,2014-03-01 01:20:00,
2014-02-28 18:25:00,68.9,0.0,29.93,West,270,5.6,10.5,0,0.00,,,0.00,WUHU21623XXSP,2014-03-01 01:25:00,
2014-02-28 18:30:00,68.2,0.0,29.93,West,270,5.6,9.4,0,0.00,,,0.00,WUHU21623XXSP,2014-03-01 01:30:00,
2014-02-28 18:35:00,67.6,0.0,29.93,West,270,6.9,7.8,0,0.00,,,0.00,WUHU21623XXSP,2014-03-01 01:35:00,
2014-02-28 18:40:00,67.6,0.0,29.94,WNW,292,8.1,14.5,0,0.00,,,0.00,WUHU21623XXSP,2014-03-01 01:40:00,
2014-02-28 18:45:00,67.8,0.0,29.94,West,270,6.9,21.9,0,0.00,,,0.00,WUHU21623XXSP,2014-03-01 01:45:00,
2014-02-28 18:50:00,68.5,0.0,29.94,West,270,5.6,21.9,0,0.00,,,0.00,WUHU21623XXSP,2014-03-01 01:50:00,
2014-02-28 18:55:00,67.8,0.0,29.94,West,270,7.4,15.0,0,0.00,,,0.00,WUHU21623XXSP,2014-03-01 01:55:00,
2014-02-28 19:00:00,67.5,0.0,29.94,West,270,5.4,7.6,0,0.00,,,0.00,WUHU21623XXSP,2014-03-01 02:00:00,
2014-02-28 19:05:00,68.5,0.0,29.95,West,270,5.4,9.8,0,0.00,,,0.00,WUHU21623XXSP,2014-03-01 02:05:00,
2014-02-28 19:10:00,67.6,0.0,29.95,West,270,4.0,9.8,0,0.00,,,0.00,WUHU21623XXSP,2014-03-01 02:10:00,
2014-02-28 19:15:00,67.1,0.0,29.95,West,270,6.7,7.6,0,0.00,,,0.00,WUHU21623XXSP,2014-03-01 02:15:00,
2014-02-28 19:20:00,66.7,0.0,29.95,WNW,292,14.5,14.5,0,0.00,,,0.00,WUHU21623XXSP,2014-03-01 02:20:00,
2014-02-28 19:25:00,68.2,0.0,29.95,WNW,292,13.6,21.7,0,0.00,,,0.00,WUHU21623XXSP,2014-03-01 02:25:00,
2014-02-28 19:30:00,68.5,0.0,29.96,West,270,6.7,21.7,0,0.00,,,0.00,WUHU21623XXSP,2014-03-01 02:30:00,
2014-02-28 19:35:00,68.4,0.0,29.96,SSW,202,11.6,17.9,0,0.00,,,0.00,WUHU21623XXSP,2014-03-01 02:35:00,
2014-02-28 19:40:00,68.7,0.0,29.96,WNW,292,5.4,16.1,0,0.00,,,0.00,WUHU21623XXSP,2014-03-01 02:40:00,
2014-02-28 19:45:00,68.5,0.0,29.96,West,270,6.9,16.1,0,0.00,,,0.00,WUHU21623XXSP,2014-03-01 02:45:00,
2014-02-28 19:50:00,67.1,0.0,29.97,West,270,4.9,14.5,0,0.00,,,0.00,WUHU21623XXSP,2014-03-01 02:50:00,
2014-02-28 19:55:00,67.3,0.0,29.97,West,270,6.7,9.2,0,0.00,,,0.00,WUHU21623XXSP,2014-03-01 02:55:00,
2014-02-28 20:00:00,65.7,0.0,29.97,WNW,292,10.3,12.3,0,0.00,,,0.00,WUHU21623XXSP,2014-03-01 03:00:00,
2014-02-28 20:05:00,64.8,0.0,29.97,WNW,292,11.0,13.4,0,0.00,,,0.00,WUHU21623XXSP,2014-03-01 03:05:00,
2014-02-28 20:10:00,65.1,0.0,29.98,WSW,247,12.3,14.8,0,0.00,,,0.00,WUHU21623XXSP,2014-03-01 03:10:00,
2014-02-28 20:15:00,66.2,0.0,29.98,West,270,7.4,15.0,0,0.00,,,0.00,WUHU21623XXSP,2014-03-01 03:15:00,
2014-02-28 20:20:00,65.5,0.0,29.98,WNW,292,8.5,15.0,0,0.00,,,0.00,WUHU21623XXSP,2014-03-01 03:20:00,
2014-02-28 20:25:00,64.0,0.0,29.98,WNW,292,9.6,10.5,0,0.00,,,0.00,WUHU21623XXSP,2014-03-01 03:25:00,
2014-02-28 20:30:00,63.3,0.0,29.98,WNW,292,6.9,10.1,0,0.00,,,0.00,WUHU21623XXSP,2014-03-01 03:30:00,
2014-02-28 20:35:00,62.6,0.0,29.98,WNW,292,10.1,13.9,0,0.00,,,0.00,WUHU21623XXSP,2014-03-01 03:35:00,
2014-02-28 20:40:00,63.0,0.0,29.98,WNW,292,11.2,15.9,0,0.00,,,0.00,WUHU21623XXSP,2014-03-01 03:40:00,
2014-02-28 20:45:00,63.0,0.0,29.98,WNW,292,11.6,15.9,0,0.00,,,0.00,WUHU21623XXSP,2014-03-01 03:45:00,
2014-02-28 20:50:00,63.1,0.0,29.99,WNW,292,8.5,15.0,0,0.00,,,0.00,WUHU21623XXSP,2014-03-01 03:50:00,
2014-02-28 20:55:00,63.0,0.0,29.99,WNW,292,12.1,15.2,0,0.00,,,0.00,WUHU21623XXSP,2014-03-01 03:55:00,
2014-02-28 21:00:00,63.0,0.0,29.99,WNW,292,8.3,15.2,0,0.00,,,0.00,WUHU21623XXSP,2014-03-01 04:00:00,
2014-02-28 21:05:00,62.4,0.0,30.00,WNW,292,13.2,13.4,0,0.00,,,0.00,WUHU21623XXSP,2014-03-01 04:05:00,
2014-02-28 21:10:00,62.8,0.0,30.00,West,270,7.2,16.6,0,0.00,,,0.00,WUHU21623XXSP,2014-03-01 04:10:00,
2014-02-28 21:15:00,62.8,0.0,30.00,West,270,7.2,16.6,0,0.00,,,0.00,WUHU21623XXSP,2014-03-01 04:15:00,
2014-02-28 21:20:00,62.4,0.0,30.00,West,270,6.9,12.3,0,0.00,,,0.00,WUHU21623XXSP,2014-03-01 04:20:00,
2014-02-28 21:25:00,62.4,0.0,30.00,West,270,4.9,12.3,0,0.00,,,0.00,WUHU21623XXSP,2014-03-01 04:25:00,
2014-02-28 21:30:00,62.4,0.0,30.00,WNW,292,10.1,12.5,0,0.00,,,0.00,WUHU21623XXSP,2014-03-01 04:30:00,
2014-02-28 21:35:00,62.6,0.0,30.00,WNW,292,8.5,12.5,0,0.00,,,0.00,WUHU21623XXSP,2014-03-01 04:35:00,
2014-02-28 21:40:00,62.4,0.0,30.00,WNW,292,6.7,12.3,0,0.00,,,0.00,WUHU21623XXSP,2014-03-01 04:40:00,
2014-02-28 21:45:00,62.4,0.0,30.01,WNW,292,6.5,10.3,0,0.00,,,0.00,WUHU21623XXSP,2014-03-01 04:45:00,
2014-02-28 21:50:00,62.2,0.0,30.01,West,270,6.3,13.2,0,0.00,,,0.00,WUHU21623XXSP,2014-03-01 04:50:00,
2014-02-28 21:56:00,62.1,0.0,30.01,West,270,7.2,13.2,0,0.00,,,0.00,WUHU21623XXSP,2014-03-01 04:56:00,
2014-02-28 22:01:00,62.4,0.0,30.01,WNW,292,6.3,11.2,0,0.00,,,0.00,WUHU21623XXSP,2014-03-01 05:01:00,
2014-02-28 22:06:00,62.8,0.0,30.01,West,270,4.5,11.2,0,0.00,,,0.00,WUHU21623XXSP,2014-03-01 05:06:00,
2014-02-28 22:11:00,62.8,0.0,30.00,West,270,3.6,8.5,0,0.00,,,0.00,WUHU21623XXSP,2014-03-01 05:11:00,
2014-02-28 22:17:00,61.9,0.0,30.00,West,270,0.0,4.9,0,0.00,,,0.00,WUHU21623XXSP,2014-03-01 05:17:00,
2014-02-28 22:22:00,62.2,0.0,30.00,West,270,0.0,4.3,0,0.00,,,0.00,WUHU21623XXSP,2014-03-01 05:22:00,
2014-02-28 22:27:00,61.2,0.0,30.00,SW,225,2.0,3.6,0,0.00,,,0.00,WUHU21623XXSP,2014-03-01 05:27:00,
2014-02-28 22:32:00,61.7,0.0,30.00,SSW,202,6.5,16.3,0,0.00,,,0.00,WUHU21623XXSP,2014-03-01 05:32:00,
2014-02-28 22:37:00,61.0,0.0,30.00,SSW,202,7.4,16.3,0,0.00,,,0.00,WUHU21623XXSP,2014-03-01 05:37:00,
2014-02-28 22:42:00,62.2,0.0,30.00,SW,225,9.6,12.5,0,0.00,,,0.00,WUHU21623XXSP,2014-03-01 05:42:00,
2014-02-28 22:47:00,62.8,0.0,30.00,SW,225,14.1,17.7,0,0.00,,,0.00,WUHU21623XXSP,2014-03-01 05:47:00,
2014-02-28 22:52:00,62.4,0.0,30.01,SW,225,6.9,17.7,0,0.00,,,0.00,WUHU21623XXSP,2014-03-01 05:52:00,
2014-02-28 22:57:00,63.5,0.0,30.00,South,180,11.4,17.7,0,0.00,,,0.00,WUHU21623XXSP,2014-03-01 05:57:00,
2014-02-28 23:02:00,62.1,0.0,30.00,SSE,157,6.5,17.7,0,0.00,,,0.00,WUHU21623XXSP,2014-03-01 06:02:00,
2014-02-28 23:07:00,61.0,0.0,30.00,South,180,7.2,13.6,0,0.00,,,0.00,WUHU21623XXSP,2014-03-01 06:07:00,
2014-02-28 23:12:00,61.0,0.0,30.00,SW,225,7.4,17.2,0,0.00,,,0.00,WUHU21623XXSP,2014-03-01 06:12:00,
2014-02-28 23:17:00,61.3,0.0,30.00,SSW,202,9.6,17.2,0,0.00,,,0.00,WUHU21623XXSP,2014-03-01 06:17:00,
2014-02-28 23:22:00,60.8,0.0,30.00,SSW,202,5.4,10.3,0,0.00,,,0.00,WUHU21623XXSP,2014-03-01 06:22:00,
2014-02-28 23:27:00,61.9,0.0,30.00,SW,225,15.4,18.8,0,0.00,,,0.00,WUHU21623XXSP,2014-03-01 06:27:00,
2014-02-28 23:32:00,63.1,0.0,30.01,SW,225,14.1,21.5,0,0.00,,,0.00,WUHU21623XXSP,2014-03-01 06:32:00,
2014-02-28 23:37:00,63.1,0.0,30.01,WSW,247,12.3,21.5,0,0.00,,,0.00,WUHU21623XXSP,2014-03-01 06:37:00,
2014-02-28 23:42:00,63.1,0.0,30.00,WSW,247,6.5,18.8,0,0.00,,,0.00,WUHU21623XXSP,2014-03-01 06:42:00,
2014-02-28 23:47:00,62.6,0.0,30.01,WSW,247,7.2,12.8,0,0.00,,,0.00,WUHU21623XXSP,2014-03-01 06:47:00,
2014-02-28 23:52:00,61.3,0.0,30.00,WSW,247,4.9,10.3,0,0.00,,,0.00,WUHU21623XXSP,2014-03-01 06:52:00,
2014-02-28 23:57:00,61.0,0.0,30.00,WSW,247,2.0,6.0,0,0.00,,,0.00,WUHU21623XXSP,2014-03-01 06:57:00,